Regional Weather Roundup
Issued by NWS Grand Forks, ND

Home | Current Version | Previous Version | Text Only | Print | Product List | Glossary On
Versions: 1 2 3 4 5 6 7 8 9 10 11 12 13 14 15 16 17 18 19 20 21 22 23 24 25 26 27 28 29 30 31 32 33 34 35 36 37 38 39 40 41 42 43 44 45 46 47 48 49 50
000
ASUS43 KFGF 262331
RWRFGF
PRAIRIE TO PINES  WEATHER ROUNDUP
NATIONAL WEATHER SERVICE EASTERN NORTH DAKOTA/GRAND FORKS ND
600 PM CDT FRI AUG 26 2016

 **SATELLITE DATA USED TO AUGMENT SKY COVER AT AUTOMATED STATIONS**
 *****  WEATHER ACROSS EASTERN NORTH DAKOTA  *****

CITY           SKY/WX    TMP DP  RH WIND       PRES   REMARKS
GRAND FORKS    CLOUDY    71  54  54 SW13      30.01F
GRAND FRKS AFB CLOUDY    70  53  54 SW9       30.02S
GRAND FRKS NWS   N/A     70 N/A N/A SW10        N/A
DEVILS LAKE    SUNNY     72  50  45 S14       30.01S
FARGO          CLOUDY    70  53  54 W10       30.06F
WAHPETON ARPT  CLOUDY    68  52  56 S9        30.08F
$$

 ***** WEATHER ACROSS CENTRAL AND WESTERN NORTH DAKOTA  *****

CITY           SKY/WX    TMP DP  RH WIND       PRES   REMARKS
BISMARCK       SUNNY     69  51  52 S13       30.02F
MINOT          CLOUDY    71  50  47 S25G35    29.94S
JAMESTOWN      PTSUNNY   65  50  58 S10       30.06F
MINOT AFB      MOSUNNY   72  48  41 S16G28    29.92S
GARRISON         N/A     66  54  65 S13G21    29.98F
WILLISTON      PTSUNNY   76  42  29 SW8       29.92F
DICKINSON      CLOUDY    69  39  33 S14       29.97F
HETTINGER      CLOUDY    65  50  58 S7        30.02S
$$

 *****  OTHER AIRPORT OBSERVATIONS IN OUR AREA  *****

CITY           SKY/WX    TMP DP  RH WIND       PRES   REMARKS
WALHALLA       FAIR      75  75 100 SW12G17   29.96S
GRAFTON AIRPOR FAIR      73  54  49 SW13      30.00F
VALLEY CITY AR CLOUDY    64  54  68 S8        30.08F
CANDO          FAIR      73  46  38 SW18G24   29.99F
CAVALIER APRT  FAIR      73  50  43 SW10G18   29.97S
GWINNER        CLOUDY    63  57  82 S7        30.09F
SHEYENNE NWR     N/A     63  55  76 W5        29.95
ROLLA          FAIR      72  46  40 S13       29.97S
 ***** THE ABOVE OBSERVATIONS ARE NON NWS ARE NOT QUALITY
       CONTROLLED AND MAY MIS-REPORT RAIN FOR SNOW...
$$

  *****  WEATHER ACROSS NORTHERN MINNESOTA  *****

CITY           SKY/WX    TMP DP  RH WIND       PRES   REMARKS
FLAG ISLAND    CLOUDY    72  54  53 CALM      30.00R HAZE
WARROAD        MOSUNNY   72  55  56 S3        30.02S
ROSEAU         CLOUDY    73  55  53 S5        30.01F
HALLOCK        CLOUDY    75  48  38 SW14      29.98S
THF RVR FALLS  MOSUNNY   72  51  47 SW8       30.04S
BAUDETTE       MOSUNNY   75  49  39 S3        30.03F
WASKISH        MOSUNNY   70  54  56 CALM      30.06S
CROOKSTON      CLOUDY    72  54  53 SW16      30.04R
STEPHEN NDAWN    N/A     73  54  49 SW8         N/A
GREENBUSH NDAW   N/A     73  52  46 S9          N/A
$$
  *****  WEATHER ACROSS CENTRAL AND WEST MINNESOTA  *****

CITY           SKY/WX    TMP DP  RH WIND       PRES   REMARKS
FOSSTON        CLOUDY    68  50  52 SW10      30.07S
BEMIDJI        PTSUNNY   70  50  49 SW7       30.07F
PARK RAPIDS    MOSUNNY   72  49  44 SW7       30.10S
ELBOW LAKE     MOCLDY    68  56  64 S9        30.11F
WADENA         CLOUDY    72  52  49 W6        30.10F
DETROIT LAKES  CLOUDY    70  50  49 SW9       30.10F
MOORHEAD       MOSUNNY   70  54  56 SW8       30.07F
FERGUS FALLS   CLOUDY    68  55  64 S9        30.11S
MORRIS MN      CLOUDY    72  54  53 CALM      30.11S
STAPLES        CLOUDY    70  48  46 SW7       30.11S
$$
  *****  WEATHER ELSEWHERE ACROSS MINNESOTA  *****

CITY           SKY/WX    TMP DP  RH WIND       PRES   REMARKS
DULUTH         CLOUDY    70  53  54 S9        30.12S
INTRNTL FALLS  SUNNY     73  50  44 SW5       30.05S
ELY            PTSUNNY   70  46  43 S5        30.10F
CLOQUET        CLOUDY    70  52  52 S6        30.12S
WHEATON        CLOUDY    70  57  64 S5        30.11F
BRAINERD       CLOUDY    71  50  47 S9        30.11F
HIBBING        CLOUDY    70  47  43 SW3       30.10F
ALEXANDRIA     MOSUNNY   69  51  52 SW10      30.14F
SAINT CLOUD    PTSUNNY   71  54  54 SW8       30.12F
MINNEAPOLIS    CLOUDY    71  53  52 VRB5      30.14F
$$

  *****  WEATHER ACROSS SOUTH DAKOTA  *****

CITY           SKY/WX    TMP DP  RH WIND       PRES   REMARKS
SIOUX FALLS    CLOUDY    72  58  61 SE9       30.10F
BROOKINGS      MOSUNNY   71  52  50 CALM      30.11
WATERTOWN      CLOUDY    70  50  49 CALM      30.11F
HURON          LGT RAIN  67  55  65 E8        30.07F
SISSETON         N/A     68  60  75 SW5       30.09F
ABERDEEN       CLOUDY    63  57  81 E5        30.08F
MITCHELL       CLOUDY    71  56  58 NE6       30.09F
PIERRE         CLOUDY    64  55  72 E12       30.03F
MOBRIDGE       LGT RAIN  60  55  83 SE9       30.03F
RAPID CITY     SUNNY     68  54  60 SE15      29.98F
$$

  *****  SOME WEATHER IN NEARBY STATES *****

CITY           SKY/WX    TMP DP  RH WIND       PRES   REMARKS
GLASGOW MT     CLOUDY    67  46  47 W12       29.96F
GREAT FALLS MT SUNNY     71  40  32 E9        29.98F
CHEYENNE WY    CLOUDY    64  45  49 E8        30.11F
SCOTTSBLUFF NE CLOUDY    67  53  61 E13       30.04F
OMAHA NE       LGT RAIN  70  63  78 E6        30.04F
DES MOINES IA  CLOUDY    71  64  78 NE12      30.06F
DAVENPORT IA   MOSUNNY   76  63  64 E9        30.10S
CHICAGO IL     PTSUNNY   76  60  57 E9        30.11F
EAU CLAIRE WI  CLOUDY    71  53  52 W5        30.14F
LA CROSSE WI   CLOUDY    74  58  57 N3        30.13F
$$

  *****  SOME NATIONAL WEATHER *****

CITY           SKY/WX    TMP DP  RH WIND       PRES   REMARKS
LA GUARDIA NY  PTCLDY    88  66  48 NW14      29.99R HX  90
RALEIGH NC     PTCLDY    93  73  52 S6        30.03S HX 102
ATLANTA GA     MOSUNNY   91  67  44 E7        30.03S HX  94
NEW ORLEANS LA CLOUDY    86  75  69 SE8       29.96S HX  95
OKLAHOMA CITY  CLOUDY    88  64  44 E9        29.97S
ALBUQUERQUE NM PTSUNNY   77  45  32 N8        30.13F
SALT LAKE CITY PTSUNNY   85  26  11 N18G25    29.97R
LOS ANGELES CA MOSUNNY   71  57  61 W15       29.94F
BOISE ID       SUNNY     85  33  15 N8G16     29.93F
SEATTLE WA     PTSUNNY   90  47  22 NW6       29.88F
$$

*** WEATHER ACROSS MANITOBA...SASKATCHEWAN AND ONTARIO ***
                ***ONTARIO***

CITY           SKY/WX    TMP DP  RH WIND       PRES   REMARKS
GERALDTON      MOSUNNY   66  48  52 W7        30.08R
THUNDER BAY    MOSUNNY   66  50  55 S13       30.11R
SIOUX LOOKOUT  PTSUNNY   70  50  49 SW8       30.03S
TORONTO        MOSUNNY   81  57  44 W13       30.07S
BIG TROUT LK   RAIN      59  57  94 W12G22    29.92R
PICKLE LAKE    MOSUNNY   70  48  46 SW10G20   30.00F
DRYDEN         SUNNY     70  46  43 SW6       30.03S
KENORA         PTSUNNY   70  52  52 S7        30.02S
$$
                *** MANITOBA***

CITY           SKY/WX    TMP DP  RH WIND       PRES   REMARKS
BRANDON        PTSUNNY   73  52  46 S9        29.90F
DAUPHIN        LGT RAIN  63  57  82 VRB7      29.87R
ISLAND LAKE    PTSUNNY   63  59  88 S7        29.91R
PILOT MOUND      N/A     72  46  40 S9          N/A
THE PAS        TSTM      57  54  88 VRB2      29.84R
THOMPSON       PTSUNNY   59  52  77 VRB2      29.89S
WINNIPEG       PTSUNNY   72  48  43 SW10      29.93S
LYNN LAKE      SUNNY     64  36  34 MISG      29.86F
CHURCHILL      PTSUNNY   55  36  47 N2        29.88F
GILLAM         PTSUNNY   59  46  63 VRB2      29.89S
$$
                ***SASKATCHEWAN***

CITY           SKY/WX    TMP DP  RH WIND       PRES   REMARKS
ESTEVAN        PTSUNNY   73  48  40 W10       29.90F
KINDERSLEY     MOSUNNY   66  45  45 NW3       29.91F
LLOYDMINSTER   PTSUNNY   68  48  49 S5        29.88F
PRINCE ALBERT  LGT RAIN  63  55  77 N9G17     29.85F
REGINA         PTSUNNY   64  54  68 NW12      29.90S
YORKTON        MOSUNNY   66  54  63 SW12      29.85F
N. BATTLEFORD  MOSUNNY   68  48  49 NE5       29.90F
LA RONGE       MOSUNNY   64  50  59 SE9       29.87F
SASKATOON      PTSUNNY   66  48  52 N10       29.89F
SWIFT CURRENT  MOSUNNY   66  43  42 W15G21    29.93F
$$
NOTE: THESE ARE AUTOMATED STATIONS WITH LIMITED QUALITY CONTROL
      "FAIR" INDICATES FEW OR NO CLOUDS BELOW 12,000 FEET WITH NO
      SIGNIFICANT WEATHER AND/OR OBSTRUCTIONS TO VISIBILITY.
      SKY/WX - SKY CONDITION AND SIGNIFICANT WEATHER.
      TMP - AIR TEMPERATURE.    DP   - DEWPOINT TEMPERATURE.
      RH  - RELATIVE HUMIDITY.  PRES - PRESSURE.
      HX  - HEAT INDEX.         WCI  - WIND CHILL INDEX.
$



USA.gov is the U.S. government's official web portal to all federal, state and local government web resources and services.